| time (UTC) | temp F | wind direction | speed knots | gust knots | rain 1hr in | rain 24hr in | rain mn in | humidity % | barometer mb |
| 20260506124903 | 74 | 130 | 5.2 | 10.4 | 0.00 | 0.00 | 0.00 | 92 | 1008.5 |
| 20260506124404 | 74 | 125 | 4.3 | 7.8 | 0.00 | 0.00 | 0.00 | 92 | 1008.4 |
| 20260506123903 | 74 | 120 | 4.3 | 7.0 | 0.00 | 0.00 | 0.00 | 92 | 1008.5 |
| 20260506123404 | 74 | 128 | 3.5 | 6.1 | 0.00 | 0.00 | 0.00 | 92 | 1008.5 |
| 20260506122404 | 74 | 124 | 2.6 | 5.2 | 0.00 | 0.00 | 0.00 | 92 | 1008.5 |
| 20260506121904 | 74 | 121 | 1.7 | 4.3 | 0.00 | 0.00 | 0.00 | 92 | 1008.5 |
| 20260506121403 | 74 | 123 | 2.6 | 4.3 | 0.00 | 0.00 | 0.00 | 92 | 1008.6 |
| 20260506120904 | 74 | 116 | 1.7 | 4.3 | 0.00 | 0.00 | 0.00 | 92 | 1008.5 |
| 20260506120404 | 74 | 123 | 2.6 | 4.3 | 0.00 | 0.00 | 0.00 | 92 | 1008.5 |
| 20260506115904 | 74 | 123 | 1.7 | 4.3 | 0.00 | 0.00 | 0.00 | 92 | 1008.4 |
| 20260506115403 | 74 | 112 | 2.6 | 4.3 | 0.00 | 0.00 | 0.00 | 91 | 1008.3 |
| 20260506114404 | 74 | 128 | 2.6 | 2.6 | 0.00 | 0.00 | 0.00 | 91 | 1008.4 |
| 20260506113905 | 74 | 123 | 0.9 | 4.3 | 0.00 | 0.00 | 0.00 | 91 | 1008.4 |
| 20260506113403 | 74 | 132 | 1.7 | 4.3 | 0.00 | 0.00 | 0.00 | 91 | 1008.4 |
| 20260506112904 | 74 | 127 | 1.7 | 4.3 | 0.00 | 0.00 | 0.00 | 91 | 1008.4 |
| 20260506112404 | 74 | 117 | 2.6 | 4.3 | 0.00 | 0.00 | 0.00 | 91 | 1008.4 |
| 20260506111904 | 74 | 111 | 2.6 | 4.3 | 0.00 | 0.00 | 0.00 | 91 | 1008.4 |
| 20260506111403 | 74 | 124 | 1.7 | 4.3 | 0.00 | 0.00 | 0.00 | 91 | 1008.4 |
| 20260506110904 | 74 | 123 | 1.7 | 4.3 | 0.00 | 0.00 | 0.00 | 91 | 1008.3 |
| 20260506110404 | 74 | 130 | 0.9 | 2.6 | 0.00 | 0.00 | 0.00 | 91 | 1008.2 |
| 20260506105904 | 74 | 128 | 1.7 | 4.3 | 0.00 | 0.00 | 0.00 | 91 | 1008.2 |
| 20260506105404 | 74 | 137 | 1.7 | 4.3 | 0.00 | 0.00 | 0.00 | 91 | 1008.1 |
| 20260506104903 | 74 | 124 | 1.7 | 7.8 | 0.00 | 0.00 | 0.00 | 91 | 1008.0 |
| 20260506104403 | 74 | 138 | 2.6 | 7.8 | 0.00 | 0.00 | 0.00 | 91 | 1008.0 |
| 20260506103903 | 74 | 139 | 2.6 | 7.8 | 0.00 | 0.00 | 0.00 | 91 | 1007.9 |
| 20260506103403 | 74 | 128 | 2.6 | 8.7 | 0.00 | 0.00 | 0.00 | 91 | 1007.9 |
| 20260506102903 | 74 | 155 | 4.3 | 8.7 | 0.00 | 0.00 | 0.00 | 91 | 1007.7 |
| 20260506102403 | 74 | 149 | 1.7 | 10.4 | 0.00 | 0.00 | 0.00 | 91 | 1007.7 |
| 20260506101404 | 74 | 133 | 4.3 | 10.4 | 0.00 | 0.00 | 0.00 | 91 | 1007.7 |
| 20260506100903 | 74 | 148 | 2.6 | 12.2 | 0.00 | 0.00 | 0.00 | 91 | 1007.7 |
| 20260506100403 | 74 | 142 | 4.3 | 12.2 | 0.00 | 0.00 | 0.00 | 91 | 1007.7 |
| 20260506095904 | 74 | 135 | 4.3 | 10.4 | 0.00 | 0.00 | 0.00 | 91 | 1007.6 |
| 20260506095404 | 74 | 156 | 4.3 | 11.3 | 0.00 | 0.00 | 0.00 | 91 | 1007.6 |
| 20260506094904 | 74 | 131 | 3.5 | 11.3 | 0.00 | 0.00 | 0.00 | 91 | 1007.6 |
| 20260506093905 | 74 | 138 | 4.3 | 8.7 | 0.00 | 0.00 | 0.00 | 91 | 1007.4 |
| 20260506093403 | 74 | 150 | 4.3 | 10.4 | 0.00 | 0.00 | 0.00 | 91 | 1007.4 |
| 20260506092404 | 74 | 142 | 5.2 | 13.0 | 0.00 | 0.00 | 0.00 | 91 | 1007.3 |
| 20260506091904 | 74 | 131 | 5.2 | 13.0 | 0.00 | 0.00 | 0.00 | 91 | 1007.3 |
| 20260506091404 | 74 | 154 | 5.2 | 13.0 | 0.00 | 0.00 | 0.00 | 91 | 1007.3 |
| 20260506090905 | 74 | 147 | 5.2 | 11.3 | 0.00 | 0.00 | 0.00 | 91 | 1007.2 |
| 20260506090404 | 74 | 131 | 4.3 | 11.3 | 0.00 | 0.00 | 0.00 | 91 | 1007.1 |
| 20260506085904 | 74 | 156 | 5.2 | 11.3 | 0.00 | 0.00 | 0.00 | 91 | 1007.2 |
| 20260506085404 | 74 | 141 | 4.3 | 10.4 | 0.00 | 0.00 | 0.00 | 91 | 1007.2 |
| 20260506084904 | 74 | 128 | 4.3 | 10.4 | 0.00 | 0.00 | 0.00 | 91 | 1007.1 |
| 20260506084404 | 74 | 139 | 3.5 | 10.4 | 0.00 | 0.00 | 0.00 | 91 | 1007.2 |
| 20260506083904 | 74 | 120 | 3.5 | 10.4 | 0.00 | 0.00 | 0.00 | 91 | 1007.2 |
| 20260506083404 | 74 | 137 | 4.3 | 12.2 | 0.00 | 0.00 | 0.00 | 91 | 1007.2 |
| 20260506082905 | 74 | 149 | 6.1 | 12.2 | 0.00 | 0.00 | 0.00 | 91 | 1007.2 |
| 20260506082405 | 74 | 152 | 5.2 | 12.2 | 0.00 | 0.00 | 0.00 | 91 | 1007.3 |
| 20260506081904 | 74 | 140 | 6.1 | 12.2 | 0.00 | 0.00 | 0.00 | 91 | 1007.2 |
| 20260506073405 | 75 | 143 | 6.1 | 13.9 | 0.00 | 0.00 | 0.00 | 90 | 1007.6 |
| 20260506072404 | 75 | 143 | 5.2 | 12.2 | 0.00 | 0.00 | 0.00 | 90 | 1007.6 |
| 20260506071904 | 75 | 146 | 6.1 | 12.2 | 0.00 | 0.00 | 0.00 | 90 | 1007.7 |
| 20260506071404 | 75 | 140 | 6.1 | 14.8 | 0.00 | 0.00 | 0.00 | 90 | 1007.8 |
| 20260506070904 | 75 | 147 | 5.2 | 14.8 | 0.00 | 0.00 | 0.00 | 90 | 1007.7 |
| 20260506070404 | 75 | 140 | 5.2 | 14.8 | 0.00 | 0.00 | 0.00 | 90 | 1007.9 |
| 20260506062404 | 75 | 147 | 7.8 | 17.4 | 0.00 | 0.00 | 0.00 | 90 | 1007.7 |
| 20260506060904 | 75 | 149 | 7.8 | 20.0 | 0.00 | 0.00 | 0.00 | 90 | 1007.8 |
| 20260506060404 | 75 | 137 | 7.8 | 18.2 | 0.00 | 0.00 | 0.00 | 90 | 1007.8 |
| 20260506051404 | 76 | 141 | 7.8 | 13.9 | 0.00 | 0.00 | 0.00 | 89 | 1007.8 |
| 20260506044905 | 76 | 148 | 7.8 | 13.9 | 0.00 | 0.00 | 0.00 | 89 | 1007.9 |
| 20260506044405 | 76 | 143 | 5.2 | 12.2 | 0.00 | 0.00 | 0.00 | 89 | 1007.9 |
| 20260506043904 | 76 | 148 | 6.1 | 12.2 | 0.00 | 0.00 | 0.00 | 89 | 1007.9 |
| 20260506043404 | 76 | 138 | 6.1 | 11.3 | 0.00 | 0.00 | 0.00 | 88 | 1007.9 |
| 20260506042904 | 76 | 142 | 5.2 | 17.4 | 0.00 | 0.00 | 0.00 | 88 | 1007.9 |
| 20260506042404 | 76 | 143 | 7.8 | 17.4 | 0.00 | 0.00 | 0.00 | 88 | 1007.7 |
| 20260506041904 | 76 | 141 | 7.0 | 17.4 | 0.00 | 0.00 | 0.00 | 88 | 1007.6 |
| 20260506041405 | 76 | 137 | 7.8 | 17.4 | 0.00 | 0.00 | 0.00 | 88 | 1007.7 |
| 20260506040904 | 76 | 134 | 6.1 | 17.4 | 0.00 | 0.00 | 0.00 | 88 | 1007.7 |
| 20260506040405 | 76 | 130 | 7.8 | 17.4 | 0.00 | 0.00 | 0.00 | 88 | 1007.6 |
| 20260506035904 | 76 | 137 | 8.7 | 15.6 | 0.00 | 0.00 | 0.00 | 88 | 1007.5 |
| 20260506035404 | 76 | 136 | 8.7 | 15.6 | 0.00 | 0.00 | 0.00 | 88 | 1007.4 |
| 20260506034904 | 76 | 135 | 7.0 | 13.9 | 0.00 | 0.00 | 0.00 | 88 | 1007.4 |
| 20260506034405 | 76 | 130 | 6.1 | 13.9 | 0.00 | 0.00 | 0.00 | 88 | 1007.4 |
| 20260506033905 | 76 | 133 | 6.1 | 13.0 | 0.00 | 0.00 | 0.00 | 88 | 1007.3 |
| 20260506033405 | 76 | 140 | 7.8 | 13.9 | 0.00 | 0.00 | 0.00 | 88 | 1007.2 |
| 20260506032405 | 76 | 139 | 6.1 | 13.0 | 0.00 | 0.00 | 0.00 | 88 | 1007.0 |
| 20260506031405 | 76 | 139 | 6.1 | 11.3 | 0.00 | 0.00 | 0.00 | 87 | 1007.0 |
| 20260506030904 | 76 | 138 | 5.2 | 10.4 | 0.00 | 0.00 | 0.00 | 87 | 1007.0 |
| 20260506030404 | 77 | 134 | 5.2 | 13.0 | 0.00 | 0.00 | 0.00 | 87 | 1006.8 |
| 20260506025906 | 77 | 135 | 6.1 | 13.0 | 0.00 | 0.00 | 0.00 | 86 | 1006.9 |
| 20260506024904 | 77 | 131 | 6.1 | 13.0 | 0.00 | 0.00 | 0.00 | 86 | 1006.7 |
| 20260506024404 | 77 | 130 | 7.0 | 11.3 | 0.00 | 0.00 | 0.00 | 85 | 1006.6 |
| 20260506023905 | 77 | 143 | 6.1 | 11.3 | 0.00 | 0.00 | 0.00 | 85 | 1006.5 |
| 20260506023409 | 77 | 137 | 5.2 | 10.4 | 0.00 | 0.00 | 0.00 | 85 | 1006.3 |
| 20260506022906 | 77 | 130 | 6.1 | 10.4 | 0.00 | 0.00 | 0.00 | 84 | 1006.2 |
| 20260506022404 | 78 | 137 | 5.2 | 13.0 | 0.00 | 0.00 | 0.00 | 84 | 1006.1 |
| 20260506021904 | 78 | 130 | 7.0 | 13.0 | 0.00 | 0.00 | 0.00 | 84 | 1006.0 |
| 20260506021405 | 78 | 134 | 6.1 | 12.2 | 0.00 | 0.00 | 0.00 | 84 | 1005.9 |
| 20260506020905 | 78 | 129 | 7.8 | 12.2 | 0.00 | 0.00 | 0.00 | 84 | 1005.9 |
| 20260506015904 | 78 | 131 | 6.1 | 13.0 | 0.00 | 0.00 | 0.00 | 83 | 1005.7 |
| 20260506015405 | 78 | 131 | 6.1 | 11.3 | 0.00 | 0.00 | 0.00 | 83 | 1005.7 |
| 20260506014904 | 78 | 134 | 5.2 | 8.7 | 0.00 | 0.00 | 0.00 | 83 | 1005.6 |
| 20260506014405 | 78 | 127 | 4.3 | 8.7 | 0.00 | 0.00 | 0.00 | 82 | 1005.7 |
| 20260506013906 | 78 | 128 | 5.2 | 10.4 | 0.00 | 0.00 | 0.00 | 82 | 1005.6 |
| 20260506013404 | 79 | 129 | 5.2 | 11.3 | 0.00 | 0.00 | 0.00 | 82 | 1005.5 |
| 20260506012905 | 79 | 129 | 5.2 | 11.3 | 0.00 | 0.00 | 0.00 | 81 | 1005.5 |
| 20260506012406 | 79 | 129 | 5.2 | 11.3 | 0.00 | 0.00 | 0.00 | 81 | 1005.7 |
| 20260506011905 | 79 | 134 | 5.2 | 8.7 | 0.00 | 0.00 | 0.00 | 80 | 1005.7 |
| 20260506010405 | 80 | 132 | 4.3 | 7.8 | 0.00 | 0.00 | 0.00 | 79 | 1005.7 |
| 20260506005905 | 80 | 136 | 4.3 | 7.0 | 0.00 | 0.00 | 0.00 | 78 | 1005.8 |
| 20260506004405 | 81 | 132 | 3.5 | 7.8 | 0.00 | 0.00 | 0.00 | 77 | 1005.7 |
| 20260506003905 | 81 | 133 | 3.5 | 7.8 | 0.00 | 0.00 | 0.00 | 76 | 1005.5 |
| 20260506003405 | 82 | 132 | 4.3 | 7.8 | 0.00 | 0.00 | 0.00 | 76 | 1005.5 |
| 20260506002905 | 82 | 130 | 2.6 | 7.0 | 0.00 | 0.00 | 0.00 | 75 | 1005.5 |
| 20260506002405 | 82 | 140 | 2.6 | 6.1 | 0.00 | 0.00 | 0.00 | 75 | 1005.5 |
| 20260506001904 | 82 | 141 | 3.5 | 7.0 | 0.00 | 0.00 | 0.00 | 75 | 1005.5 |
| 20260506001404 | 82 | 139 | 4.3 | 8.7 | 0.00 | 0.00 | 0.00 | 74 | 1005.5 |
| 20260506000405 | 82 | 140 | 5.2 | 10.4 | 0.00 | 0.00 | 0.00 | 74 | 1005.4 |
| 20260505235904 | 82 | 149 | 2.6 | 13.9 | 0.00 | 0.00 | 0.00 | 73 | 1005.4 |
| 20260505235405 | 82 | 148 | 6.1 | 13.9 | 0.00 | 0.00 | 0.00 | 73 | 1005.3 |
| 20260505234404 | 83 | 136 | 5.2 | 13.9 | 0.00 | 0.00 | 0.00 | 73 | 1005.1 |
| 20260505233905 | 83 | 145 | 6.1 | 13.9 | 0.00 | 0.00 | 0.00 | 73 | 1005.2 |
| 20260505233405 | 83 | 146 | 5.2 | 13.0 | 0.00 | 0.00 | 0.00 | 73 | 1005.3 |
| 20260505232905 | 83 | 138 | 5.2 | 13.0 | 0.00 | 0.00 | 0.00 | 73 | 1005.2 |
| 20260505232405 | 83 | 133 | 6.1 | 13.0 | 0.00 | 0.00 | 0.00 | 73 | 1005.2 |
| 20260505231405 | 83 | 133 | 6.1 | 17.4 | 0.00 | 0.00 | 0.00 | 70 | 1005.3 |
| 20260505230905 | 83 | 135 | 6.1 | 17.4 | 0.00 | 0.00 | 0.00 | 71 | 1005.2 |
| 20260505230405 | 83 | 132 | 5.2 | 13.9 | 0.00 | 0.00 | 0.00 | 72 | 1005.1 |
| 20260505225906 | 83 | 142 | 6.1 | 13.9 | 0.00 | 0.00 | 0.00 | 71 | 1005.1 |
| 20260505225405 | 83 | 136 | 6.1 | 11.3 | 0.00 | 0.00 | 0.00 | 71 | 1005.0 |
| 20260505224404 | 83 | 140 | 7.8 | 14.8 | 0.00 | 0.00 | 0.00 | 71 | 1005.1 |
| 20260505223905 | 83 | 142 | 7.0 | 15.6 | 0.00 | 0.00 | 0.00 | 71 | 1005.0 |
| 20260505223405 | 83 | 150 | 6.1 | 17.4 | 0.00 | 0.00 | 0.00 | 71 | 1005.0 |
| 20260505222905 | 83 | 144 | 7.0 | 17.4 | 0.00 | 0.00 | 0.00 | 70 | 1005.0 |
| 20260505222404 | 83 | 146 | 6.1 | 13.9 | 0.00 | 0.00 | 0.00 | 70 | 1005.0 |
| 20260505221906 | 84 | 131 | 6.1 | 17.4 | 0.00 | 0.00 | 0.00 | 70 | 1005.0 |
| 20260505221405 | 84 | 142 | 7.8 | 17.4 | 0.00 | 0.00 | 0.00 | 71 | 1005.0 |
| 20260505220905 | 84 | 138 | 7.8 | 14.8 | 0.00 | 0.00 | 0.00 | 68 | 1005.2 |
| 20260505220404 | 85 | 136 | 7.0 | 13.9 | 0.00 | 0.00 | 0.00 | 66 | 1005.1 |
| 20260505215906 | 85 | 108 | 5.2 | 14.8 | 0.00 | 0.00 | 0.00 | 70 | 1005.2 |
| 20260505214406 | 84 | 147 | 6.1 | 17.4 | 0.00 | 0.00 | 0.00 | 70 | 1005.4 |
| 20260505213905 | 84 | 132 | 7.8 | 17.4 | 0.00 | 0.00 | 0.00 | 69 | 1005.5 |
| 20260505212905 | 85 | 144 | 6.1 | 17.4 | 0.00 | 0.00 | 0.00 | 68 | 1005.6 |
| 20260505212405 | 85 | 146 | 8.7 | 17.4 | 0.00 | 0.00 | 0.00 | 66 | 1005.6 |
| 20260505210905 | 85 | 4 | 7.8 | 17.4 | 0.00 | 0.00 | 0.00 | 67 | 1005.7 |
| 20260505210405 | 84 | 158 | 8.7 | 17.4 | 0.00 | 0.00 | 0.00 | 69 | 1005.9 |
| 20260505205905 | 83 | 136 | 7.8 | 20.0 | 0.00 | 0.00 | 0.00 | 70 | 1005.9 |
| 20260505205405 | 83 | 139 | 7.0 | 20.0 | 0.00 | 0.00 | 0.00 | 69 | 1005.8 |
| 20260505204905 | 83 | 135 | 7.0 | 17.4 | 0.00 | 0.00 | 0.00 | 69 | 1006.0 |
| 20260505203906 | 83 | 128 | 5.2 | 17.4 | 0.00 | 0.00 | 0.00 | 70 | 1006.3 |
| 20260505203405 | 83 | 139 | 8.7 | 17.4 | 0.00 | 0.00 | 0.00 | 70 | 1006.3 |
| 20260505202905 | 83 | 226 | 5.2 | 14.8 | 0.00 | 0.00 | 0.00 | 70 | 1006.4 |
| 20260505202406 | 83 | 135 | 6.1 | 13.0 | 0.00 | 0.00 | 0.00 | 71 | 1006.5 |
| 20260505201906 | 83 | 125 | 6.1 | 13.9 | 0.00 | 0.00 | 0.00 | 70 | 1006.7 |
| 20260505201405 | 84 | 111 | 5.2 | 15.6 | 0.00 | 0.00 | 0.00 | 69 | 1006.7 |
| 20260505200905 | 83 | 137 | 9.6 | 18.2 | 0.00 | 0.00 | 0.00 | 70 | 1006.7 |
| 20260505195906 | 83 | 91 | 3.5 | 18.2 | 0.00 | 0.00 | 0.00 | 71 | 1006.6 |
| 20260505195406 | 83 | 155 | 9.6 | 20.0 | 0.00 | 0.00 | 0.00 | 71 | 1006.7 |
| 20260505194406 | 82 | 141 | 9.6 | 20.0 | 0.00 | 0.00 | 0.00 | 72 | 1006.9 |
| 20260505193905 | 83 | 150 | 5.2 | 13.0 | 0.00 | 0.00 | 0.00 | 71 | 1006.9 |
| 20260505192905 | 83 | 358 | 5.2 | 12.2 | 0.00 | 0.00 | 0.00 | 72 | 1007.0 |
| 20260505192406 | 83 | 271 | 5.2 | 15.6 | 0.00 | 0.00 | 0.00 | 72 | 1007.1 |
| 20260505191905 | 82 | 89 | 6.1 | 15.6 | 0.00 | 0.00 | 0.00 | 73 | 1007.2 |
| 20260505190906 | 82 | 113 | 2.6 | 17.4 | 0.00 | 0.00 | 0.00 | 73 | 1007.1 |
| 20260505190406 | 82 | 147 | 6.1 | 17.4 | 0.00 | 0.00 | 0.00 | 73 | 1007.2 |
| 20260505185906 | 82 | 136 | 5.2 | 13.9 | 0.00 | 0.00 | 0.00 | 74 | 1007.3 |
| 20260505185405 | 82 | 140 | 5.2 | 14.8 | 0.00 | 0.00 | 0.00 | 73 | 1007.4 |
| 20260505184907 | 82 | 141 | 7.8 | 14.8 | 0.00 | 0.00 | 0.00 | 72 | 1007.4 |
| 20260505184405 | 82 | 4 | 3.5 | 12.2 | 0.00 | 0.00 | 0.00 | 74 | 1007.3 |
| 20260505183905 | 81 | 233 | 4.3 | 13.0 | 0.00 | 0.00 | 0.00 | 74 | 1007.4 |
| 20260505183405 | 81 | 147 | 5.2 | 14.8 | 0.00 | 0.00 | 0.00 | 74 | 1007.5 |
| 20260505182906 | 80 | 200 | 6.1 | 14.8 | 0.00 | 0.00 | 0.00 | 76 | 1007.7 |
| 20260505181907 | 80 | 151 | 5.2 | 13.9 | 0.00 | 0.00 | 0.00 | 77 | 1007.7 |
| 20260505180905 | 79 | 123 | 4.3 | 14.8 | 0.00 | 0.00 | 0.00 | 77 | 1007.8 |
| 20260505180406 | 79 | 351 | 6.1 | 14.8 | 0.00 | 0.00 | 0.00 | 77 | 1007.9 |
| 20260505175905 | 79 | 86 | 4.3 | 10.4 | 0.00 | 0.00 | 0.00 | 78 | 1008.1 |
| 20260505175405 | 78 | 251 | 3.5 | 12.2 | 0.00 | 0.00 | 0.00 | 81 | 1008.1 |
| 20260505174907 | 78 | 153 | 4.3 | 13.0 | 0.00 | 0.00 | 0.00 | 81 | 1008.1 |
| 20260505174405 | 77 | 24 | 6.1 | 13.0 | 0.00 | 0.00 | 0.00 | 81 | 1008.0 |
| 20260505173405 | 76 | 358 | 6.1 | 12.2 | 0.00 | 0.00 | 0.00 | 83 | 1008.4 |
| 20260505172905 | 76 | 139 | 5.2 | 11.3 | 0.00 | 0.00 | 0.00 | 84 | 1008.4 |
| 20260505171905 | 75 | 136 | 4.3 | 12.2 | 0.00 | 0.00 | 0.00 | 85 | 1008.3 |
| 20260505171406 | 75 | 154 | 4.3 | 12.2 | 0.00 | 0.00 | 0.00 | 86 | 1008.4 |
| 20260505170906 | 74 | 321 | 4.3 | 12.2 | 0.00 | 0.00 | 0.00 | 86 | 1008.4 |
| 20260505170405 | 74 | 180 | 5.2 | 12.2 | 0.00 | 0.00 | 0.00 | 86 | 1008.4 |
| 20260505165405 | 74 | 332 | 4.3 | 13.0 | 0.00 | 0.00 | 0.00 | 86 | 1008.4 |
| 20260505164905 | 74 | 161 | 5.2 | 13.0 | 0.00 | 0.00 | 0.00 | 86 | 1008.3 |
| 20260505164406 | 74 | 144 | 5.2 | 13.0 | 0.00 | 0.00 | 0.00 | 87 | 1008.3 |
| 20260505163905 | 73 | 175 | 5.2 | 11.3 | 0.00 | 0.00 | 0.00 | 88 | 1008.4 |
| 20260505162907 | 73 | 206 | 4.3 | 10.4 | 0.00 | 0.00 | 0.00 | 88 | 1008.3 |
| 20260505162405 | 73 | 7 | 4.3 | 10.4 | 0.00 | 0.00 | 0.00 | 89 | 1008.4 |
| 20260505161907 | 72 | 345 | 4.3 | 10.4 | 0.00 | 0.00 | 0.00 | 89 | 1008.5 |
| 20260505161405 | 72 | 7 | 4.3 | 10.4 | 0.00 | 0.00 | 0.00 | 89 | 1008.4 |
| 20260505160906 | 72 | 148 | 3.5 | 10.4 | 0.00 | 0.00 | 0.00 | 89 | 1008.5 |
| 20260505152906 | 71 | 147 | 4.3 | 14.8 | 0.00 | 0.00 | 0.00 | 91 | 1008.4 |
| 20260505151906 | 71 | 260 | 4.3 | 14.8 | 0.00 | 0.00 | 0.00 | 91 | 1008.4 |
| 20260505150906 | 71 | 338 | 3.5 | 10.4 | 0.00 | 0.00 | 0.00 | 91 | 1008.2 |
| 20260505150405 | 71 | 162 | 3.5 | 10.4 | 0.00 | 0.00 | 0.00 | 91 | 1008.1 |
| 20260505140403 | 70 | 157 | 4.3 | 10.4 | 0.00 | 0.00 | 0.00 | 92 | 1007.9 |